Temp
8 8 7 7 7 7 7 6 7 7 7 7 7 7 7 7 8 8 9 9 9 8 8 8 8 8 7 6 6 5 6 6 7 8 8 6 5 5 6 6 6 6 6 6 7 7 6 6 6
8 7 7 7 7 7 7 7 7 7 7 7 7 7 7 7 7 7 8 8 8 7 8 7 7 7 7 6 6 6 5 5 6 7 7 6 5 6 6 6 6 6 6 6 6 7 6 6 6
7 7 7 7 7 7 7 7 7 7 7 7 7 7 7 7 7 7 7 7 7 7 7 7 6 6 6 6 6 6 6 6 6 6 7 6 6 6 6 5 5 5 6 6 6 6 6 6 5
7 7 7 7 7 7 7 7 7 7 7 7 7 7 7 7 6 6 6 6 6 6 6 6 6 6 6 5 6 5 5 5 5 6 6 6 6 6 5 5 5 5 5 6 5 5 5 5 5
7 7 7 7 7 7 7 7 7 7 7 7 7 7 7 7 6 6 5 5 5 5 6 6 5 5 5 5 5 5 5 5 5 5 6 6 6 6 5 4 4 5 5 5 5 5 5 4 4
7 6 6 7 7 7 7 7 7 7 7 7 6 6 7 6 5 5 5 5 5 5 5 5 5 5 5 4 4 4 4 4 4 4 5 6 6 5 4 4 4 4 5 5 4 4 4 4 4
7 6 6 7 7 7 7 7 7 7 7 6 6 6 6 6 5 5 5 5 5 5 4 3 4 4 4 3 3 3 3 3 3 4 5 5 6 5 4 4 4 4 4 4 4 4 4 3 4
6 6 6 6 7 7 7 7 7 7 6 6 6 6 6 6 6 5 4 5 4 5 4 3 3 3 4 3 2 3 3 3 3 4 4 5 5 4 3 3 3 3 3 3 3 3 3 3 3
6 5 6 6 7 7 7 7 7 7 7 6 6 5 5 5 5 5 5 4 4 4 4 4 2 3 2 2 3 3 3 1 2 3 3 4 5 4 3 3 3 4 3 3 3 3 3 3 3
6 6 6 7 6 6 7 7 7 7 7 6 6 5 5 5 5 5 5 5 4 4 3 2 1 1 1 2 2 1 2 2 2 1 2 3 4 3 3 3 3 3 3 3 3 3 3 3 3
6 7 6 6 6 6 6 7 7 7 7 6 5 5 5 5 5 5 5 4 4 4 4 3 3 2 2 2 2 2 2 3 3 -0 2 3 3 3 2 3 3 3 3 2 3 2 2 2 2
6 6 6 6 6 6 6 7 7 7 7 6 5 5 5 5 5 5 3 2 2 4 4 4 3 3 3 2 3 2 2 2 1 -1 2 2 3 2 2 3 3 3 2 2 2 3 3 3 2
5 6 6 6 6 6 7 7 7 7 7 6 6 6 5 5 5 4 2 1 2 3 4 4 3 3 2 2 2 1 1 0 1 -0 1 1 2 2 2 2 3 2 2 2 2 3 3 2 2
6 6 5 6 6 6 6 7 7 8 7 7 6 6 5 5 5 4 2 1 1 2 4 4 2 2 2 2 1 0 1 1 0 -1 -0 0 -0 1 1 2 2 1 2 2 2 3 2 1 1
6 5 5 6 6 6 6 7 7 7 7 7 6 6 6 6 6 5 4 1 2 2 3 3 2 3 3 2 1 1 1 0 -0 -1 -2 -1 -2 0 1 1 1 2 2 2 2 2 1 1 1
6 5 5 6 6 6 6 7 7 7 7 6 6 6 6 6 6 5 5 4 3 3 2 3 2 2 2 2 1 1 0 -0 -0 0 -2 -1 -1 -0 0 0 0 1 1 2 2 2 1 1 1
5 5 6 6 6 6 6 7 7 7 7 7 7 6 6 6 6 5 5 5 5 4 3 2 2 2 2 2 1 1 1 0 -0 0 -2 -1 -1 -1 -0 0 -0 0 0 1 1 2 1 1 1
5 5 6 7 7 6 6 7 8 7 7 8 7 7 6 6 6 5 5 5 4 4 4 3 2 2 2 2 2 2 1 0 -0 -0 -0 -1 -1 -1 -0 -0 -0 0 0 0 0 1 1 1 1
6 6 6 6 6 6 7 7 7 7 8 8 7 7 6 6 6 5 5 5 5 4 3 3 0 1 2 2 1 2 1 0 -0 -0 -1 -1 -1 -1 -1 -1 -1 -1 -0 -0 -0 1 1 1 1
5 6 5 6 6 6 6 7 7 7 7 8 8 7 7 7 6 6 5 5 5 5 4 2 -0 1 2 1 1 1 1 1 -0 -1 -2 -1 -2 -2 -2 -2 -1 -1 -1 -1 0 0 0 0 1
4 5 6 5 5 6 6 6 7 7 7 7 8 8 7 7 6 6 6 5 5 5 5 4 2 2 2 1 2 1 1 0 -0 -1 -1 -1 -2 -2 -2 -2 -2 -2 -2 -2 -1 -0 -0 0 0
4 5 5 5 4 5 5 5 5 7 7 7 8 8 7 7 7 6 6 5 5 5 5 5 4 4 3 2 1 1 1 1 1 -0 -1 -2 -2 -2 -2 -2 -2 -2 -1 -1 -1 -0 -0 -0 -0
5 5 5 5 4 4 4 5 6 6 7 7 8 8 8 7 7 7 6 6 5 5 5 5 5 4 3 2 1 1 1 0 0 0 -1 -1 -2 -2 -2 -2 -2 -1 -1 -2 -1 -1 -0 -0 -0
3 4 4 4 3 3 4 5 6 7 7 8 8 8 8 8 7 7 7 7 6 6 6 5 5 5 4 3 2 2 1 1 0 0 -1 -1 -1 -1 -2 -2 -2 -1 -2 -2 -1 -1 -0 -0 -0
3 4 4 4 3 5 5 5 6 7 7 7 7 8 8 8 7 7 7 7 7 6 6 6 5 5 5 5 4 4 2 -0 0 0 -0 -0 -0 -0 -1 -2 -2 -1 -1 -1 -1 -1 -0 -1 -0
4 3 4 4 4 6 4 4 6 7 7 7 7 7 8 8 8 7 7 7 7 6 6 6 6 5 5 5 5 5 4 3 2 1 1 0 -1 -0 -1 -1 -1 -1 -1 -1 -1 -0 -0 -0 -0
3 2 4 4 2 3 4 5 6 7 7 7 7 7 8 8 8 8 7 7 7 7 7 6 6 6 5 5 5 5 4 4 4 4 3 3 2 2 1 1 1 1 1 1 1 0 0 -0 0
3 4 3 3 4 4 3 4 6 7 7 7 7 8 8 8 8 8 7 7 7 7 7 6 6 6 5 5 5 5 5 5 4 4 4 3 3 3 2 2 2 2 1 1 0 -0 -0 -0 0
2 3 4 4 4 4 4 5 7 7 7 7 7 8 8 8 8 8 8 8 7 7 7 6 6 6 6 5 5 5 5 5 4 4 4 4 3 3 3 2 2 2 1 1 0 0 -0 -0 -1
3 3 3 3 3 3 4 5 6 7 7 7 7 7 8 8 8 8 8 8 7 7 7 7 6 6 6 6 5 5 5 5 5 4 4 3 3 3 3 2 2 1 1 1 -0 0 -0 -0 -0
Height
3136 3134 3134 3134 3139 3135 3134 3136 3134 3134 3134 3132 3132 3131 3130 3129 3128 3129 3125 3124 3124 3125 3127 3129 3130 3132 3135 3137 3141 3144 3147 3148 3149 3151 3153 3155 3157 3160 3163 3165 3167 3169 3170 3171 3172 3172 3173 3173 3174
3134 3133 3133 3132 3135 3134 3133 3133 3133 3133 3132 3131 3130 3130 3129 3127 3126 3124 3123 3121 3120 3122 3123 3124 3125 3128 3131 3134 3137 3140 3145 3146 3147 3150 3151 3154 3155 3158 3163 3165 3167 3169 3171 3172 3172 3172 3173 3175 3177
3132 3132 3133 3132 3132 3132 3132 3131 3132 3132 3131 3129 3129 3128 3126 3125 3122 3121 3119 3118 3118 3118 3119 3121 3122 3125 3129 3132 3134 3137 3141 3143 3144 3146 3149 3152 3154 3157 3161 3164 3166 3169 3171 3172 3172 3173 3175 3177 3178
3131 3132 3133 3130 3130 3130 3129 3130 3130 3130 3129 3128 3126 3125 3124 3122 3119 3118 3116 3115 3115 3115 3117 3116 3118 3120 3125 3128 3132 3135 3138 3141 3143 3142 3147 3148 3153 3156 3160 3163 3165 3168 3170 3171 3174 3175 3176 3178 3179
3129 3129 3129 3128 3128 3128 3128 3128 3128 3128 3127 3126 3124 3122 3120 3117 3115 3113 3114 3112 3111 3113 3112 3112 3115 3116 3119 3123 3126 3130 3133 3137 3139 3142 3144 3148 3152 3155 3159 3163 3165 3168 3170 3172 3174 3175 3177 3178 3179
3127 3127 3127 3127 3126 3126 3126 3127 3127 3126 3125 3123 3121 3119 3117 3114 3112 3111 3110 3108 3108 3108 3108 3108 3112 3114 3118 3118 3122 3126 3127 3132 3136 3139 3142 3147 3151 3155 3159 3163 3165 3168 3171 3173 3174 3175 3177 3178 3180
3125 3125 3125 3125 3125 3125 3125 3125 3125 3124 3123 3121 3119 3116 3114 3111 3109 3108 3106 3106 3105 3105 3103 3104 3093 3102 3109 3114 3118 3121 3124 3128 3132 3136 3140 3145 3149 3154 3158 3162 3165 3168 3171 3173 3175 3176 3177 3178 3179
3121 3123 3121 3122 3123 3123 3123 3123 3122 3121 3120 3118 3116 3113 3111 3109 3107 3105 3102 3102 3101 3102 3103 3103 3104 3097 3102 3106 3111 3116 3120 3124 3129 3133 3136 3142 3148 3153 3157 3161 3165 3168 3171 3173 3174 3176 3177 3178 3180
3118 3119 3117 3119 3120 3121 3121 3120 3120 3119 3117 3115 3112 3110 3107 3105 3104 3102 3099 3098 3098 3099 3099 3100 3092 3088 3095 3103 3106 3112 3113 3109 3125 3129 3135 3141 3146 3151 3155 3161 3164 3168 3171 3173 3175 3176 3178 3179 3180
3114 3113 3114 3116 3117 3118 3118 3118 3117 3116 3114 3112 3109 3106 3103 3101 3099 3098 3097 3094 3094 3095 3096 3095 3089 3091 3089 3099 3099 3101 3110 3112 3116 3124 3132 3139 3143 3149 3154 3160 3164 3167 3171 3173 3174 3176 3178 3181 3181
3109 3108 3112 3113 3114 3114 3115 3114 3114 3112 3110 3108 3106 3103 3100 3097 3096 3093 3091 3088 3087 3092 3094 3093 3094 3095 3096 3095 3096 3096 3101 3107 3112 3119 3130 3134 3141 3147 3153 3158 3163 3166 3169 3172 3174 3176 3178 3180 3181
3105 3107 3108 3110 3111 3111 3111 3111 3110 3108 3108 3105 3102 3100 3097 3095 3092 3088 3083 3082 3080 3086 3090 3091 3091 3093 3095 3093 3093 3091 3095 3101 3107 3119 3127 3132 3139 3147 3153 3158 3163 3166 3168 3172 3174 3176 3180 3180 3182
3101 3104 3105 3107 3107 3107 3108 3108 3107 3104 3104 3102 3099 3097 3095 3092 3089 3083 3079 3079 3079 3083 3087 3088 3090 3092 3093 3091 3089 3091 3096 3100 3108 3118 3125 3131 3138 3146 3153 3156 3161 3164 3168 3171 3173 3174 3178 3180 3181
3097 3100 3101 3102 3104 3104 3105 3104 3103 3103 3101 3099 3097 3094 3092 3090 3087 3081 3077 3077 3077 3081 3085 3086 3089 3090 3092 3092 3090 3090 3095 3098 3106 3113 3123 3130 3134 3144 3150 3155 3159 3163 3167 3170 3172 3175 3177 3179 3179
3093 3096 3097 3098 3100 3100 3101 3099 3099 3099 3097 3096 3095 3093 3091 3088 3087 3082 3077 3075 3077 3079 3082 3085 3086 3089 3090 3091 3091 3093 3097 3100 3104 3111 3120 3126 3130 3142 3148 3153 3157 3162 3166 3168 3171 3174 3175 3177 3179
3090 3093 3093 3095 3095 3094 3097 3093 3096 3095 3094 3094 3092 3092 3090 3088 3086 3083 3078 3077 3077 3079 3079 3081 3084 3085 3087 3092 3093 3096 3098 3103 3107 3111 3119 3123 3134 3142 3147 3150 3155 3159 3165 3166 3170 3172 3173 3175 3176
3085 3086 3089 3091 3091 3091 3092 3089 3092 3091 3091 3090 3090 3090 3088 3087 3086 3083 3081 3079 3077 3077 3078 3080 3083 3085 3087 3091 3093 3095 3099 3104 3108 3112 3118 3125 3132 3141 3146 3149 3153 3157 3162 3165 3168 3170 3171 3173 3175
3076 3081 3084 3085 3088 3087 3088 3087 3088 3088 3087 3088 3087 3087 3086 3085 3085 3083 3081 3079 3077 3076 3076 3076 3079 3082 3086 3089 3093 3095 3099 3104 3108 3113 3119 3125 3130 3137 3143 3147 3152 3156 3159 3161 3166 3168 3168 3170 3172
3076 3078 3081 3082 3084 3084 3084 3084 3084 3085 3084 3084 3084 3084 3083 3083 3083 3082 3081 3079 3077 3076 3074 3072 3072 3076 3081 3085 3089 3092 3096 3102 3107 3112 3118 3124 3128 3135 3140 3143 3148 3153 3156 3159 3162 3164 3166 3167 3169
3074 3074 3077 3080 3079 3080 3080 3079 3080 3080 3081 3081 3080 3080 3079 3080 3080 3080 3079 3078 3076 3074 3071 3065 3067 3070 3077 3082 3086 3091 3096 3099 3104 3110 3116 3121 3127 3132 3136 3140 3144 3149 3152 3156 3159 3161 3163 3163 3165
3069 3069 3072 3076 3077 3076 3074 3073 3075 3077 3076 3077 3077 3077 3076 3076 3077 3077 3076 3076 3075 3073 3069 3064 3066 3070 3076 3080 3083 3088 3092 3097 3099 3105 3112 3116 3122 3127 3131 3136 3139 3143 3148 3152 3154 3156 3158 3159 3160
3063 3066 3070 3072 3075 3074 3072 3069 3070 3072 3071 3072 3073 3074 3074 3073 3073 3074 3074 3074 3074 3073 3072 3068 3069 3072 3074 3076 3080 3083 3089 3093 3097 3101 3106 3110 3116 3121 3125 3130 3133 3137 3140 3144 3149 3151 3153 3154 3156
3060 3064 3067 3069 3070 3070 3069 3070 3062 3065 3065 3066 3068 3070 3070 3070 3070 3071 3071 3071 3070 3071 3072 3072 3071 3073 3073 3074 3078 3080 3083 3089 3092 3097 3102 3105 3110 3116 3119 3123 3127 3130 3134 3139 3143 3145 3147 3149 3150
3058 3062 3064 3066 3067 3065 3064 3067 3057 3060 3060 3061 3063 3065 3066 3066 3067 3068 3069 3069 3069 3070 3071 3072 3073 3073 3074 3076 3076 3076 3080 3085 3088 3093 3097 3101 3106 3111 3113 3118 3121 3125 3129 3135 3138 3140 3141 3143 3144
3054 3058 3062 3064 3063 3056 3059 3061 3054 3055 3057 3057 3058 3060 3061 3062 3063 3065 3066 3068 3068 3069 3071 3072 3072 3074 3075 3075 3075 3077 3077 3082 3085 3090 3095 3100 3103 3105 3108 3112 3116 3120 3124 3129 3132 3134 3135 3135 3136
3046 3051 3054 3056 3054 3053 3055 3053 3051 3052 3053 3054 3055 3055 3056 3058 3059 3061 3063 3066 3067 3068 3069 3070 3072 3074 3075 3075 3077 3078 3077 3079 3082 3087 3090 3094 3098 3101 3105 3108 3113 3114 3118 3121 3125 3126 3128 3128 3128
3042 3044 3051 3051 3052 3053 3050 3049 3048 3049 3049 3050 3049 3049 3051 3053 3055 3058 3060 3063 3065 3066 3068 3069 3070 3071 3073 3074 3076 3077 3079 3081 3083 3085 3087 3089 3094 3097 3099 3102 3107 3110 3113 3116 3118 3120 3120 3119 3120
3039 3043 3047 3048 3048 3049 3046 3047 3046 3046 3045 3046 3044 3044 3047 3049 3051 3054 3057 3059 3062 3064 3066 3067 3068 3070 3071 3072 3075 3077 3079 3081 3083 3085 3087 3089 3091 3093 3096 3099 3103 3106 3108 3109 3110 3111 3111 3110 3110
3034 3036 3040 3041 3042 3041 3043 3043 3043 3042 3042 3043 3043 3043 3044 3046 3049 3051 3054 3056 3058 3059 3061 3063 3064 3066 3068 3069 3072 3074 3076 3078 3080 3081 3083 3085 3088 3090 3092 3094 3096 3098 3100 3102 3102 3102 3102 3101 3100
3030 3032 3034 3035 3039 3039 3040 3038 3040 3042 3042 3042 3043 3043 3044 3044 3047 3049 3051 3053 3054 3056 3056 3057 3058 3060 3063 3065 3066 3068 3070 3072 3075 3078 3081 3083 3085 3086 3087 3089 3089 3090 3091 3091 3092 3093 3094 3092 3092
Wind_Speed
9 7 3 3 4 5 6 5 7 6 6 5 5 5 5 6 7 7 9 10 11 14 16 14 16 21 22 20 18 18 22 21 21 21 24 18 14 13 12 13 12 12 12 12 11 12 11 12 12
8 5 3 5 3 2 2 7 6 4 3 6 7 10 11 15 14 12 13 14 12 17 19 19 21 21 24 20 21 18 21 19 22 23 23 20 16 14 14 14 14 13 13 13 12 10 10 9 9
6 3 6 4 3 2 4 4 3 3 5 8 11 14 16 16 17 18 16 15 14 15 21 23 21 23 23 22 21 21 25 16 21 27 21 19 18 17 15 15 16 15 14 13 11 10 10 10 9
6 6 5 6 2 3 5 1 3 5 10 13 10 14 18 21 21 20 18 17 15 17 18 21 23 25 26 24 25 22 29 23 22 19 28 19 21 19 17 16 15 15 15 11 10 9 9 9 10
7 8 10 6 3 3 2 3 3 8 13 15 18 20 21 21 20 20 18 19 18 19 23 23 28 30 31 29 29 31 26 24 24 20 24 22 24 22 19 18 17 15 12 10 10 11 11 11 11
9 8 7 5 3 4 3 2 6 10 14 17 19 18 21 19 14 14 16 17 19 22 24 27 30 33 31 30 30 34 31 29 28 27 27 29 27 23 21 19 20 16 12 11 11 11 12 12 12
11 11 11 6 4 3 1 2 6 10 13 15 16 15 21 14 16 16 12 13 15 17 23 27 32 36 39 37 39 35 34 34 31 31 28 26 28 25 23 22 20 17 15 13 13 13 14 14 13
13 14 15 11 5 3 6 7 9 11 15 17 18 14 20 15 15 15 16 15 13 13 20 24 30 40 39 45 44 37 40 42 34 35 28 26 28 26 26 24 20 17 16 15 14 15 15 16 15
15 17 19 15 7 7 9 11 9 13 16 19 20 17 22 16 15 14 14 15 16 16 20 21 27 39 45 38 39 39 36 38 36 33 31 31 30 29 28 24 20 18 16 17 18 16 16 16 16
18 21 19 16 9 10 10 14 13 15 18 18 18 17 20 16 15 13 14 15 15 16 19 15 1 13 24 23 21 34 40 32 47 40 36 35 32 29 28 25 22 21 19 19 18 17 15 15 14
20 20 14 14 12 13 11 12 14 16 19 18 18 18 20 16 17 19 24 19 21 17 17 12 10 5 4 4 7 25 38 41 39 36 39 35 33 32 29 27 26 23 20 18 17 18 17 15 13
21 17 15 15 13 15 15 15 15 21 19 20 16 20 20 18 20 21 19 14 19 17 14 14 13 10 10 6 5 23 45 49 41 43 39 37 35 32 26 25 23 21 19 18 17 17 9 11 13
23 20 20 18 17 17 19 19 18 18 17 19 18 20 19 17 20 19 12 7 13 13 16 15 16 12 10 7 3 19 40 37 44 41 38 38 35 30 26 24 23 20 17 15 14 10 13 14 13
21 21 24 22 18 21 20 21 21 14 17 16 17 17 18 17 18 19 10 7 11 16 15 16 10 6 8 6 3 19 44 48 47 50 40 38 35 29 23 25 22 18 15 17 12 13 16 16 14
21 23 24 24 20 23 23 27 21 16 9 8 13 13 17 16 14 16 12 5 15 15 16 13 15 10 13 6 10 16 41 45 46 48 43 47 42 25 26 25 20 17 20 13 10 14 13 14 14
20 22 25 21 20 13 15 22 14 11 10 10 10 10 16 14 12 11 11 7 3 15 17 12 18 12 14 12 11 18 36 38 37 48 52 50 37 28 29 24 20 19 18 13 11 9 13 15 15
21 17 19 16 14 10 9 19 13 16 11 8 10 10 12 12 8 8 6 7 5 3 13 15 21 18 15 16 18 17 32 37 36 42 52 43 38 34 30 25 20 21 18 15 13 10 9 14 17
22 21 23 20 16 15 12 17 12 13 10 9 9 9 8 11 6 6 4 4 4 3 7 16 27 28 27 24 23 20 26 36 29 37 41 39 41 37 32 28 25 25 21 17 17 13 11 14 18
20 14 18 18 16 18 16 17 13 9 8 9 9 10 8 11 7 5 3 3 5 6 8 17 27 27 29 25 21 29 26 34 32 33 36 37 38 37 34 31 28 28 23 19 18 17 17 17 19
27 21 22 20 19 17 16 18 17 13 11 11 12 13 10 12 9 9 5 3 4 8 12 11 27 28 25 26 22 28 24 39 39 37 36 39 37 38 37 36 32 28 27 23 22 22 17 18 20
30 26 23 20 16 15 18 20 18 18 16 14 11 13 11 10 10 9 9 3 1 7 12 7 15 27 22 20 29 31 32 41 42 42 40 40 41 44 44 39 38 35 31 26 23 23 19 20 21
32 26 22 20 16 9 11 10 20 24 24 16 13 10 10 10 9 8 9 6 2 3 8 9 5 16 29 16 20 27 29 26 35 37 47 47 49 50 51 48 50 39 31 32 27 24 21 23 23
33 25 21 19 17 17 15 12 13 10 19 16 14 14 15 12 10 7 9 10 6 2 4 7 9 8 14 19 24 25 29 26 35 33 48 38 49 50 52 52 33 37 36 28 33 28 24 26 27
20 18 9 10 13 9 14 13 14 11 10 11 10 11 13 12 13 11 9 11 9 6 5 5 5 8 7 9 13 17 28 28 32 29 29 42 39 32 44 48 29 34 35 31 31 30 30 29 31
18 12 3 5 5 8 10 11 27 24 24 19 13 7 10 10 17 15 8 4 7 7 6 6 6 6 6 5 6 8 16 27 32 38 26 34 38 34 34 31 28 28 34 36 35 35 34 33 35
32 29 10 7 6 5 7 7 13 8 5 6 14 15 15 14 16 19 12 9 7 6 7 8 8 8 8 7 6 5 8 10 17 25 25 34 28 31 24 35 34 33 38 40 42 39 37 39 41
16 22 28 7 1 1 4 8 15 21 20 14 15 13 14 15 14 20 17 14 11 7 4 7 9 10 10 10 9 8 8 11 13 15 17 18 21 21 24 26 29 31 33 35 37 40 42 45 43
24 14 14 15 6 8 3 6 11 14 16 13 10 9 12 15 16 17 20 19 17 15 13 12 10 13 14 15 15 13 13 13 14 16 17 17 19 21 22 25 29 31 34 37 40 42 42 44 47
23 25 16 12 16 4 4 6 6 5 7 4 5 6 9 14 15 14 18 18 18 19 20 20 19 16 17 21 20 20 18 17 18 18 19 20 22 24 26 29 32 35 37 39 42 43 44 43 39
16 17 27 14 6 7 10 16 13 10 16 13 9 6 7 7 11 13 12 13 16 14 17 21 20 20 18 19 21 21 20 23 23 25 24 27 28 28 31 33 35 36 38 38 41 46 44 43 43
Wind_Direction
325 322 296 136 150 104 65 15 360 342 332 324 313 319 306 295 287 283 296 313 281 210 205 236 250 244 210 194 209 205 221 228 227 212 255 233 235 240 218 188 178 177 173 172 163 150 139 131 128
318 305 201 154 155 127 45 1 8 354 310 314 309 311 307 303 296 280 286 288 257 230 224 227 226 221 203 217 209 207 200 207 219 229 231 237 231 228 211 181 180 178 177 176 167 152 135 132 134
301 257 169 183 200 17 337 358 57 12 341 314 303 308 304 313 296 289 282 275 247 231 219 230 217 215 214 209 210 200 200 231 204 218 229 242 224 214 198 182 179 178 176 177 162 145 145 143 139
272 226 208 213 265 328 322 208 100 1 360 353 330 316 315 319 294 286 265 250 234 235 230 221 218 213 221 202 207 202 201 224 204 202 232 224 219 204 189 182 177 177 179 169 154 156 152 156 161
252 233 225 234 281 275 141 126 12 355 346 339 328 317 316 312 298 285 260 247 237 238 230 226 216 213 212 207 205 207 205 206 207 220 209 223 215 196 184 179 178 181 174 168 169 166 171 170 166
237 230 228 229 236 178 170 105 358 346 343 331 316 316 321 314 297 297 270 251 247 236 230 223 217 214 217 210 211 207 205 201 211 218 204 219 213 190 181 177 175 175 173 180 183 180 178 174 172
234 235 227 225 182 160 145 268 319 327 325 317 324 313 330 316 298 295 284 261 247 238 228 226 215 203 212 208 201 213 212 206 205 206 201 215 208 188 179 174 174 172 181 186 188 183 176 176 173
229 231 227 223 219 265 284 285 288 305 307 309 308 307 322 307 306 286 276 281 255 223 230 226 236 220 209 205 205 210 223 213 197 199 194 204 203 188 177 173 172 177 184 178 179 175 172 168 169
228 234 235 223 234 256 281 283 284 305 306 309 307 309 315 302 301 296 278 274 259 235 217 250 257 224 214 212 227 226 214 193 194 192 196 203 198 188 175 174 172 180 173 175 171 168 168 170 163
229 242 235 211 245 281 287 285 286 304 314 316 306 307 316 304 300 297 289 275 261 247 242 248 315 257 217 227 243 225 216 205 194 187 193 199 195 189 176 172 172 173 173 172 171 172 167 170 164
238 249 236 216 261 279 296 289 292 308 310 320 299 310 317 309 310 306 307 278 261 245 234 235 295 271 233 160 307 221 209 202 190 182 191 189 192 187 179 171 172 174 174 173 169 171 178 170 164
235 247 242 237 258 272 284 291 298 305 317 312 306 315 318 312 317 317 310 285 247 233 226 222 240 247 249 274 320 193 216 198 184 178 187 187 190 187 177 172 176 173 169 178 170 170 180 186 172
237 246 244 250 254 273 279 285 293 302 321 320 322 316 313 325 323 331 316 298 221 214 210 217 223 237 228 265 329 196 182 182 177 176 182 187 189 184 176 171 176 168 174 176 175 166 214 198 181
241 244 244 247 256 264 273 281 285 308 313 321 331 319 317 325 333 338 334 282 208 211 219 226 207 190 217 259 241 181 185 184 183 172 182 189 184 178 184 185 171 170 179 179 178 216 190 191 189
233 239 243 249 262 270 270 274 284 311 311 322 325 319 322 328 339 348 358 311 214 191 215 228 199 224 204 234 199 176 183 181 182 172 183 190 180 189 189 184 179 185 184 172 201 220 197 195 199
229 244 253 259 269 258 258 269 297 305 316 324 322 316 321 326 335 354 13 18 246 226 222 213 209 221 205 217 207 187 192 194 191 180 180 192 178 194 195 186 188 187 184 174 205 212 201 205 210
226 233 246 257 229 240 260 269 281 296 300 303 309 306 318 324 321 346 8 25 18 239 230 223 213 219 199 209 201 192 191 201 199 188 186 180 180 193 194 193 195 197 184 189 211 222 210 219 222
215 226 243 247 237 244 257 270 278 296 278 292 310 300 306 314 308 314 343 12 12 332 272 249 215 229 219 217 199 198 193 194 197 194 193 177 179 190 197 197 203 207 206 208 221 240 247 232 231
234 231 246 254 237 248 260 271 276 264 288 295 309 289 275 294 286 269 291 337 355 344 304 258 229 212 202 213 192 205 197 198 196 195 185 181 185 193 200 199 206 212 210 211 225 239 245 244 238
239 235 248 262 254 256 260 269 252 270 272 289 296 312 262 280 290 256 250 280 345 7 344 273 222 215 207 203 203 207 207 199 190 189 190 191 191 201 205 207 206 213 209 214 231 234 235 244 244
237 234 242 254 262 250 274 277 258 262 270 271 285 304 276 270 275 266 246 242 354 23 13 22 156 205 201 213 214 213 217 203 201 193 201 200 198 208 210 207 207 211 210 222 229 230 239 243 241
240 239 248 259 269 264 264 287 274 267 269 260 269 290 308 263 265 265 236 230 220 58 54 59 171 181 197 191 210 214 210 231 208 208 207 198 204 210 214 210 223 221 210 219 232 237 242 248 246
242 246 249 262 263 271 265 277 278 291 278 262 256 257 280 280 249 250 232 224 214 165 92 86 110 159 207 208 201 211 229 217 216 216 215 228 209 214 224 231 242 210 212 221 232 238 243 249 250
234 226 242 235 248 252 253 243 279 281 292 288 281 252 259 265 229 233 241 235 214 192 163 141 116 113 127 188 197 224 210 237 224 210 222 218 216 233 233 236 250 220 222 229 233 242 245 253 256
213 188 196 215 205 250 237 226 258 275 279 290 278 244 248 240 218 226 222 219 228 204 191 172 154 140 131 124 130 169 185 207 226 224 227 221 232 234 227 237 235 227 221 228 235 240 247 256 256
222 209 191 211 213 235 220 224 252 288 233 268 289 270 251 236 223 222 210 201 199 198 202 196 184 177 168 165 150 141 145 159 184 205 210 216 225 228 230 216 223 220 221 226 236 241 248 255 255
197 205 216 246 148 4 230 254 273 276 271 293 287 266 243 227 216 223 217 205 199 197 202 208 209 204 197 188 188 186 183 183 181 187 195 201 217 221 224 224 230 229 229 233 237 244 250 253 258
226 223 201 223 231 243 222 239 240 288 280 301 288 259 219 208 210 217 224 224 219 223 226 233 231 221 210 209 203 203 207 206 208 210 209 208 210 216 220 225 230 232 233 236 239 245 253 262 262
206 218 221 219 228 233 236 238 249 313 314 336 294 229 220 223 211 212 222 226 229 235 241 242 238 240 230 220 215 218 221 229 231 230 229 229 227 227 226 227 231 235 239 243 248 253 258 259 269
211 223 220 226 211 224 241 240 253 274 283 290 311 260 203 186 198 214 211 227 226 229 244 245 243 242 241 231 222 217 231 237 239 243 244 243 239 236 239 239 240 242 245 248 254 258 258 260 260